Wind_Speed
28 28 27 27 26 26 26 25 25 25 25 25 25 24 24 24 24 24 24 24 24 24 25 25 25 25 25 26 27 28 28 29 30 30 30 30 30 30 30 30 30 30 30
29 28 28 27 27 27 28 28 27 26 26 26 26 26 26 25 25 25 25 25 25 25 26 26 27 27 27 28 29 29 30 31 31 32 31 31 31 31 31 31 31 31 32
30 30 29 29 29 29 28 28 29 29 28 27 27 27 27 27 27 27 27 27 27 27 28 28 29 29 29 30 31 31 32 32 32 32 32 32 32 32 32 32 32 33 33
31 31 32 31 31 30 30 30 30 31 30 30 29 28 28 29 29 29 29 29 29 30 30 31 31 31 31 31 32 32 33 33 33 33 34 34 34 34 34 34 35 35 35
32 32 33 33 33 32 32 33 32 32 32 32 32 31 30 30 30 31 32 32 32 32 32 33 33 33 33 33 33 34 34 34 35 35 35 36 36 37 37 37 37 37 37
33 33 34 34 34 34 34 34 33 33 34 33 33 33 32 31 32 32 33 33 33 34 34 34 34 35 35 35 35 36 36 36 36 37 37 38 39 39 40 40 40 40 39
33 34 35 35 36 36 35 35 35 35 35 35 34 34 34 33 34 34 34 34 35 35 36 36 37 37 37 37 38 38 38 38 39 39 39 40 40 41 41 42 42 41 40
35 35 36 36 37 37 36 36 36 36 36 36 35 35 36 36 36 36 36 36 37 37 38 38 38 39 39 39 40 40 40 41 41 40 41 41 41 42 42 42 42 42 42
36 36 37 38 38 38 37 37 37 36 36 37 37 37 38 37 38 37 38 39 39 40 40 41 41 41 41 41 42 42 42 42 43 42 42 43 43 43 43 43 42 42 42
37 37 38 38 38 38 38 38 38 38 38 38 38 39 39 40 40 40 40 40 40 41 41 42 43 43 43 43 44 44 44 44 44 44 44 44 44 44 44 44 44 43 44
37 37 37 38 39 38 39 39 39 39 40 40 40 41 41 42 42 42 41 41 41 42 43 44 44 45 45 45 45 45 45 45 45 45 45 45 46 46 46 45 45 45 45
38 38 38 39 39 39 39 40 40 41 41 41 42 42 43 43 43 43 43 43 43 44 45 46 46 46 46 45 45 46 46 46 46 46 46 46 46 46 47 47 47 47 47
37 37 38 39 39 39 40 41 41 42 42 42 42 42 43 44 44 44 44 45 45 45 46 47 47 47 47 46 46 46 46 47 47 46 47 47 47 47 48 48 48 49 49
36 37 38 39 39 40 42 42 42 43 43 42 42 43 43 43 44 45 45 46 46 46 46 47 47 47 47 47 47 47 48 48 48 48 48 48 48 49 50 50 50 50 50
36 36 37 38 40 41 42 42 42 43 42 42 43 43 44 45 45 45 46 47 47 46 46 47 47 48 48 48 48 49 49 49 49 49 50 50 50 50 51 51 51 51 51
38 38 38 39 40 41 41 42 42 43 43 43 44 44 45 46 46 47 47 47 48 48 47 47 48 48 48 49 49 50 50 50 50 50 50 50 50 50 51 51 51 51 52
38 39 39 40 40 41 42 43 43 44 44 45 46 46 47 48 48 49 49 49 49 49 49 48 49 49 50 50 50 51 51 50 50 50 50 50 50 51 51 51 51 51 51
39 39 40 40 41 41 42 42 44 45 46 47 47 48 49 49 50 51 51 51 51 51 50 50 50 50 51 51 51 51 51 51 50 51 51 51 52 52 51 51 51 52 51
39 40 41 41 41 41 42 44 45 46 47 48 49 49 50 50 51 52 52 52 52 52 52 52 51 51 52 52 52 52 51 51 52 52 52 52 52 52 52 52 52 52 52
40 41 41 41 42 43 43 44 45 46 47 48 49 49 50 50 51 52 52 52 52 53 53 53 53 52 53 52 52 51 52 52 53 53 53 53 52 53 53 53 53 53 53
40 41 42 42 43 43 44 44 45 46 46 47 48 48 49 50 51 51 52 52 53 53 53 53 53 53 53 52 52 53 53 53 53 54 53 53 53 53 53 53 53 53 54
40 41 42 42 43 44 44 45 45 46 47 47 47 48 49 50 50 51 52 52 52 53 53 53 53 53 53 54 54 54 54 54 55 55 54 54 54 53 53 53 53 53 53
41 42 42 42 43 44 45 45 46 46 47 48 48 49 49 50 51 52 51 51 52 52 53 53 53 53 53 53 54 54 55 55 54 54 54 53 53 53 53 52 52 52 51
41 41 42 43 43 44 45 46 46 47 48 49 49 50 50 50 50 50 50 51 52 53 53 53 53 53 53 53 54 54 54 54 53 54 54 53 52 52 51 51 51 51 51
40 41 42 43 44 44 45 45 46 47 48 50 50 51 51 50 50 51 51 51 51 52 52 52 52 52 53 53 53 53 53 53 52 52 52 52 52 51 50 49 49 49 48
40 41 41 42 44 45 45 46 47 47 48 49 50 50 50 50 51 52 52 51 50 50 50 50 51 52 52 53 53 53 53 53 52 51 51 52 51 50 49 47 47 47 47
Wind_Direction
252 254 256 258 262 267 271 273 275 277 280 281 281 281 281 282 283 283 283 283 283 284 285 287 288 289 288 288 289 288 287 287 287 286 286 287 287 287 286 284 282 280 279
254 256 257 259 263 268 272 273 273 276 278 279 279 279 279 280 281 282 283 283 284 285 286 287 288 289 289 290 289 289 289 289 288 286 285 285 285 285 285 284 283 281 278
255 257 258 260 263 266 270 272 273 275 275 275 277 278 277 278 280 281 281 282 283 284 286 288 289 289 289 289 290 290 289 289 288 287 285 284 283 283 283 284 283 281 278
255 256 259 261 264 266 269 271 273 275 276 275 275 277 278 279 279 280 280 281 282 283 285 287 287 287 288 289 289 290 290 289 288 287 285 284 283 282 282 282 282 280 279
256 258 260 263 265 267 270 271 272 274 276 275 275 275 277 278 280 280 281 281 282 282 283 284 285 285 286 288 289 289 290 290 289 287 285 283 283 282 281 282 282 281 279
258 259 261 263 265 267 269 272 273 274 275 275 277 276 275 277 279 279 280 280 281 282 282 282 283 284 285 287 288 288 288 288 288 287 285 284 283 282 281 281 281 280 279
259 261 261 263 266 267 268 270 272 272 273 275 276 276 276 277 279 279 280 280 281 282 282 282 283 284 285 286 287 287 287 287 287 286 285 285 284 283 282 281 281 280 279
262 263 263 265 267 269 270 271 273 273 273 274 276 276 277 279 279 280 281 281 281 281 282 283 283 284 284 285 286 286 286 286 286 285 285 285 284 284 283 282 280 280 279
263 264 264 266 267 270 271 271 273 274 274 274 274 276 277 278 280 281 281 282 282 281 281 282 283 284 284 285 286 287 287 287 286 285 285 284 284 284 283 281 280 280 279
264 266 267 268 269 270 271 272 273 274 274 274 275 276 277 279 280 281 283 283 283 282 282 283 283 284 285 285 286 287 288 288 287 286 285 284 283 282 281 280 280 279 278
264 266 267 269 269 270 272 272 272 273 274 275 277 278 279 281 281 281 282 283 283 284 284 284 285 285 285 285 286 286 287 287 287 285 284 283 283 282 280 279 279 278 278
264 266 267 268 269 270 271 271 271 272 273 275 277 278 280 281 281 281 281 282 282 283 284 285 285 285 285 286 286 286 286 286 286 285 284 283 283 282 280 279 279 279 279
264 267 267 268 269 270 270 272 272 272 273 275 277 278 279 281 280 280 280 281 281 282 283 284 285 285 285 286 286 286 286 286 286 286 285 284 283 282 280 279 279 279 278
266 269 270 270 269 270 271 271 272 272 274 275 276 278 280 281 281 281 281 281 281 282 283 283 284 284 285 286 286 286 286 287 286 286 286 285 284 282 281 280 279 278 278
269 271 272 272 271 271 271 272 272 272 273 275 277 278 279 280 281 281 282 282 282 282 282 283 283 284 284 284 285 286 286 286 286 286 285 284 284 283 281 279 278 278 277
272 273 274 275 273 272 272 272 272 273 274 275 277 278 279 280 280 281 281 281 282 282 282 282 283 283 284 285 285 285 286 286 286 286 285 285 284 283 282 281 279 277 276
274 274 275 275 274 274 274 273 274 274 275 276 277 278 279 279 279 280 281 281 282 282 282 283 284 284 285 285 285 286 285 285 285 285 285 285 284 283 282 281 279 278 277
275 275 276 276 277 276 275 275 275 276 276 276 278 278 279 280 280 280 281 281 282 282 283 284 284 285 285 285 285 285 285 284 285 285 285 285 284 283 282 281 280 279 277
275 275 276 277 278 278 278 277 277 277 277 277 278 279 280 280 280 281 282 282 282 283 283 283 284 284 284 284 285 285 285 285 285 285 285 285 284 283 282 281 280 278 277
275 276 277 277 279 279 279 279 279 279 279 279 279 280 281 281 282 282 282 282 282 283 283 283 284 284 284 284 284 284 284 285 285 286 286 285 284 283 282 281 280 278 277
276 277 277 277 279 280 281 281 281 281 281 281 281 282 282 283 283 283 283 283 283 284 284 284 284 284 284 284 284 284 285 285 285 286 285 284 283 282 282 280 279 278 277
276 277 277 277 279 280 281 281 281 281 282 283 283 284 284 284 283 283 283 284 285 285 285 285 284 284 285 284 284 285 286 286 286 285 285 284 283 282 281 280 279 278 277
276 277 277 277 278 280 281 281 282 282 283 283 284 285 285 285 285 285 285 285 285 286 286 285 285 285 285 285 285 286 286 287 286 286 285 284 283 283 282 281 280 279 278
276 277 277 278 279 280 282 282 283 283 283 283 284 285 285 286 287 286 285 285 286 286 286 286 286 286 286 286 286 286 287 287 287 286 285 284 283 283 282 282 281 279 278
277 278 278 279 280 281 282 283 284 284 285 284 284 285 285 285 286 286 286 285 285 286 286 285 285 285 286 286 287 287 287 287 287 286 285 284 284 283 282 281 280 279 278
278 278 279 280 281 282 283 283 284 286 286 285 285 285 285 285 285 285 286 286 285 285 285 285 286 287 287 287 287 287 287 287 287 286 285 285 284 283 281 280 280 279 278
Height
5826 5827 5828 5829 5830 5830 5830 5830 5829 5829 5829 5828 5827 5826 5825 5824 5824 5823 5821 5820 5819 5818 5817 5816 5814 5813 5811 5810 5808 5807 5805 5804 5802 5801 5799 5797 5796 5794 5793 5791 5790 5789 5788
5821 5821 5822 5823 5824 5824 5824 5824 5824 5824 5823 5822 5822 5821 5820 5819 5818 5817 5816 5815 5814 5813 5812 5810 5809 5807 5806 5804 5802 5801 5799 5797 5795 5794 5792 5790 5789 5787 5786 5784 5783 5782 5782
5815 5816 5816 5817 5818 5818 5818 5818 5818 5818 5817 5817 5816 5815 5814 5813 5812 5812 5810 5809 5808 5807 5806 5804 5803 5801 5799 5798 5796 5794 5792 5790 5788 5787 5785 5783 5782 5780 5779 5777 5776 5775 5774
5808 5809 5810 5811 5811 5812 5812 5812 5812 5812 5811 5810 5809 5808 5808 5807 5806 5805 5804 5803 5802 5801 5799 5798 5796 5794 5793 5791 5789 5787 5785 5783 5781 5779 5778 5776 5774 5773 5771 5770 5768 5767 5766
5801 5802 5803 5804 5804 5805 5805 5805 5805 5805 5804 5803 5802 5802 5801 5800 5800 5798 5797 5796 5795 5794 5792 5790 5789 5787 5785 5783 5781 5779 5777 5775 5773 5771 5770 5768 5766 5765 5763 5762 5760 5759 5757
5794 5795 5796 5797 5797 5798 5798 5798 5797 5797 5797 5796 5795 5794 5794 5793 5792 5791 5790 5789 5787 5786 5784 5783 5781 5779 5777 5776 5773 5771 5769 5767 5765 5763 5761 5759 5758 5756 5755 5753 5751 5749 5748
5787 5788 5789 5789 5790 5790 5790 5790 5790 5790 5789 5789 5788 5787 5786 5786 5785 5783 5782 5781 5779 5778 5776 5775 5773 5771 5769 5767 5765 5763 5761 5758 5756 5754 5752 5750 5748 5746 5745 5743 5741 5740 5738
5779 5780 5781 5781 5782 5782 5782 5782 5782 5781 5781 5781 5780 5780 5779 5778 5777 5775 5773 5772 5771 5769 5767 5766 5764 5762 5760 5758 5756 5753 5751 5749 5747 5745 5742 5740 5738 5736 5734 5733 5731 5730 5728
5772 5772 5773 5773 5773 5774 5774 5774 5774 5773 5773 5773 5772 5772 5770 5770 5768 5767 5765 5763 5761 5760 5758 5756 5754 5752 5750 5748 5746 5744 5741 5739 5737 5735 5732 5730 5728 5726 5724 5722 5721 5719 5718
5764 5764 5764 5765 5765 5765 5766 5765 5765 5765 5764 5764 5763 5762 5761 5760 5759 5758 5756 5754 5752 5750 5748 5746 5744 5742 5740 5738 5735 5733 5731 5728 5726 5724 5721 5719 5717 5715 5713 5711 5709 5708 5707
5755 5756 5756 5756 5757 5757 5757 5756 5756 5755 5755 5754 5753 5753 5751 5750 5749 5748 5747 5745 5742 5740 5738 5736 5733 5731 5729 5726 5724 5722 5719 5717 5714 5712 5710 5707 5705 5703 5701 5700 5698 5696 5695
5747 5747 5748 5748 5748 5748 5747 5747 5746 5745 5745 5744 5744 5742 5741 5740 5739 5737 5736 5734 5732 5730 5727 5725 5722 5720 5717 5715 5713 5710 5708 5705 5702 5700 5698 5695 5693 5691 5689 5687 5686 5684 5682
5738 5738 5738 5738 5738 5738 5738 5737 5736 5735 5734 5734 5733 5732 5730 5729 5727 5726 5725 5723 5721 5719 5716 5713 5710 5708 5705 5703 5700 5698 5695 5693 5690 5687 5685 5683 5680 5678 5676 5675 5673 5671 5669
5728 5728 5728 5728 5728 5728 5727 5727 5726 5725 5724 5723 5722 5721 5719 5718 5716 5714 5713 5711 5709 5707 5704 5701 5698 5695 5693 5690 5688 5685 5683 5680 5677 5675 5672 5670 5667 5665 5663 5661 5659 5657 5656
5719 5719 5718 5718 5718 5717 5717 5716 5715 5714 5713 5712 5711 5709 5708 5706 5704 5702 5700 5698 5697 5695 5693 5689 5686 5683 5680 5677 5675 5672 5669 5666 5664 5661 5658 5656 5653 5651 5649 5647 5645 5643 5641
5710 5709 5709 5708 5708 5707 5706 5705 5704 5703 5702 5701 5699 5698 5696 5694 5692 5689 5688 5685 5683 5681 5680 5677 5673 5670 5667 5664 5661 5658 5655 5652 5650 5647 5644 5641 5639 5636 5634 5632 5630 5628 5627
5700 5700 5699 5698 5697 5696 5695 5694 5693 5691 5690 5689 5687 5685 5683 5681 5679 5677 5674 5672 5670 5668 5666 5664 5660 5657 5654 5651 5647 5644 5641 5638 5635 5632 5630 5627 5624 5622 5619 5617 5615 5614 5612
5690 5689 5688 5687 5686 5685 5683 5682 5681 5679 5678 5676 5674 5672 5670 5668 5666 5663 5661 5659 5656 5654 5652 5650 5646 5642 5639 5636 5633 5630 5627 5624 5621 5618 5615 5612 5610 5607 5604 5602 5600 5598 5597
5680 5678 5677 5676 5675 5673 5672 5670 5669 5667 5665 5663 5661 5659 5657 5655 5652 5650 5647 5645 5642 5639 5637 5634 5632 5628 5625 5621 5619 5616 5612 5609 5606 5603 5600 5597 5594 5592 5589 5587 5585 5583 5582
5669 5667 5666 5665 5663 5662 5660 5658 5656 5654 5652 5650 5648 5646 5643 5641 5638 5635 5633 5630 5627 5624 5622 5619 5617 5613 5610 5606 5604 5601 5598 5595 5592 5589 5585 5582 5579 5576 5573 5571 5569 5567 5566
5657 5655 5654 5653 5652 5650 5648 5646 5644 5642 5640 5637 5635 5632 5629 5627 5624 5621 5618 5616 5613 5610 5606 5604 5601 5598 5595 5591 5588 5586 5583 5580 5577 5573 5570 5567 5563 5561 5557 5555 5553 5551 5549
5645 5644 5642 5641 5640 5638 5636 5634 5631 5629 5627 5625 5622 5619 5616 5613 5610 5607 5604 5601 5598 5594 5591 5588 5586 5583 5580 5576 5573 5570 5567 5564 5562 5558 5554 5551 5547 5544 5541 5538 5536 5534 5533
5633 5632 5631 5629 5627 5625 5623 5621 5618 5616 5614 5611 5609 5606 5603 5599 5596 5593 5590 5586 5583 5579 5576 5573 5570 5567 5564 5561 5558 5555 5551 5548 5545 5540 5537 5535 5530 5528 5524 5522 5520 5518 5517
5622 5620 5619 5617 5615 5613 5610 5608 5605 5603 5601 5598 5595 5592 5589 5585 5582 5578 5575 5571 5568 5564 5561 5558 5555 5552 5548 5545 5541 5538 5535 5532 5529 5524 5519 5518 5515 5512 5509 5506 5503 5502 5501
5610 5608 5607 5605 5602 5600 5597 5595 5592 5590 5587 5584 5581 5578 5574 5571 5567 5563 5560 5557 5554 5550 5546 5542 5539 5536 5533 5529 5525 5522 5519 5515 5513 5509 5504 5501 5499 5496 5494 5491 5488 5486 5485
5599 5596 5594 5592 5590 5587 5584 5582 5579 5576 5574 5570 5567 5563 5560 5556 5552 5548 5545 5542 5539 5536 5532 5528 5525 5521 5517 5514 5510 5506 5503 5499 5496 5494 5489 5485 5483 5479 5479 5477 5473 5471 5470